#timestamp,LO_Frequency,Hit 
1502175615.1,286046982.3,N
1502175616.0,286046982.3,N
1502175635.8,286046983.5,N
1502175655.7,286046985.0,N
1502175675.5,286046983.9,N
1502175695.3,286046979.8,N
1502175715.1,286046974.6,N
1502175735.9,286046976.4,N
1502175755.7,286046974.5,N
1502175775.5,286046976.9,N
1502175795.4,286046976.4,N
1502175815.2,286046979.9,N
1502175835.0,286046978.7,N
1502175835.9,286046978.7,N
1502175855.8,286046973.2,N
1502175875.6,286046969.8,N
1502175895.4,286046969.6,N
1502175915.6,286046971.1,N
1502175935.4,286046972.3,N
1502175955.2,286046967.7,N
1502175975.1,286046970.3,N
1502175976.0,286046970.3,N
1502175995.8,286046972.4,N
1502176015.6,286046972.6,N
1502176035.5,286046978.8,N
1502176055.3,286046976.7,N
1502176075.1,286046974.7,N
1502176095.9,286046972.9,N
1502176115.3,286046969.8,N
1502176135.1,286046969.9,N
1502176155.8,286046966.1,N
1502176175.7,286046965.8,N
1502176195.5,286046962.1,N
1502176215.3,286046959.7,N
1502176235.2,286046961.4,N
1502176255.9,286046962.5,N
1502176275.7,286046963.7,N
1502176295.6,286046963.4,N
1502176315.4,286046965.4,N
1502176335.2,286046966.0,N
1502176355.1,286046961.3,N
1502176356.0,286046961.3,N
1502176375.8,286046961.4,N
1502176395.6,286046962.3,N
1502176415.5,286046962.7,N
1502176435.3,286046960.7,N
1502176455.1,286046956.5,N
1502176475.8,286046956.6,N
1502176495.7,286046957.8,N
1502176515.5,286046961.1,N
1502176535.3,286046958.5,N
1502176555.2,286046957.4,N
1502176575.0,286046956.8,N
1502176575.9,286046956.8,N
1502176595.7,286046958.4,N
1502176615.6,286046961.6,N
1502176635.4,286046962.8,N
1502176655.2,286046960.0,N
1502176675.1,286046956.5,N
1502176676.0,286046956.5,N
1502176695.8,286046956.6,N
1502176715.6,286046955.1,N
1502176735.5,286046956.2,N
1502176755.3,286046956.1,N
1502176775.1,286046955.8,N
1502176795.8,286046954.9,N
1502176815.7,286046955.4,N
1502176835.5,286046957.3,N
1502176855.3,286046956.6,N
1502176875.2,286046956.5,N
1502176895.9,286046957.0,N
1502176915.7,286046955.2,N
1502176935.6,286046953.4,N
1502176955.4,286046954.2,N
1502176975.2,286046954.5,N
1502176995.1,286046953.3,N
1502176996.0,286046953.3,N
1502177015.8,286046954.4,N
1502177035.6,286046952.8,N
1502177055.4,286046952.0,N
1502177075.3,286046951.7,N
1502177095.1,286046950.5,N
1502177115.8,286046951.9,N
1502177135.7,286046952.8,N
1502177155.5,286046952.7,N
1502177175.3,286046954.4,N
1502177195.2,286046952.7,N
1502177215.9,286046949.2,N
1502177235.7,286046951.1,N
1502177255.6,286046949.7,N
1502177275.4,286046948.1,N
1502177295.2,286046948.4,N
1502177315.1,286046945.3,N
1502177316.0,286046945.3,N
1502177335.8,286046948.3,N
1502177355.6,286046947.3,N
1502177375.4,286046950.6,N
1502177395.3,286046952.6,N
1502177415.1,286046950.1,N
1502177435.8,286046947.5,N
1502177455.7,286046947.8,N
1502177475.5,286046948.5,N
1502177495.3,286046951.1,N
1502177515.2,286046949.1,N
1502177535.9,286046946.0,N
1502177555.7,286046945.4,N
1502177575.6,286046946.2,N
1502177595.4,286046946.4,N
1502177615.2,286046946.6,N
1502177635.0,286046946.3,N
1502177635.9,286046946.3,N
1502177655.8,286046942.5,N
1502177675.6,286046944.6,N
1502177695.4,286046945.1,N
1502177715.3,286046943.6,N
1502177735.1,286046940.7,N
1502177755.8,286046944.7,N
1502177775.7,286046945.0,N
1502177795.5,286046943.6,N
1502177815.3,286046940.9,N
1502177835.2,286046940.7,N
1502177855.9,286046941.2,N
1502177875.7,286046940.9,N
1502177895.5,286046943.6,N
1502177915.4,286046940.9,N
1502177935.2,286046940.7,N
1502177955.0,286046941.1,N
1502177955.9,286046941.1,N
1502177975.8,286046941.5,N
1502177995.6,286046937.4,N
1502178015.4,286046939.5,N
1502178035.3,286046935.7,N
1502178055.1,286046936.6,N
1502178056.0,286046936.6,N
1502178075.8,286046936.1,N
1502178095.7,286046935.9,N
1502178115.5,286046936.0,N
1502178135.3,286046935.9,N
1502178155.2,286046934.1,N
1502178175.9,286046935.3,N
1502178195.7,286046935.1,N
1502178215.5,286046934.8,N
1502178235.4,286046936.2,N
1502178255.2,286046938.4,N
1502178275.0,286046938.2,N
1502178275.9,286046938.2,N
1502178295.8,286046934.1,N
1502178315.6,286046934.7,N
1502178335.4,286046937.1,N
1502178355.3,286046936.0,N
1502178375.1,286046938.7,N
1502178376.0,286046938.7,N
1502178395.8,286046936.4,N
1502178415.7,286046937.1,N
1502178435.5,286046936.5,N
1502178455.3,286046936.5,N
1502178475.1,286046936.6,N
1502178495.9,286046934.2,N
1502178515.7,286046934.3,N
1502178535.5,286046933.1,N
1502178555.4,286046933.7,N
1502178575.2,286046933.6,N
1502178595.0,286046933.0,N
1502178595.9,286046933.0,N
1502178615.8,286046934.3,N
1502178635.6,286046933.0,N
1502178655.4,286046933.1,N
1502178675.3,286046930.9,N
1502178695.1,286046932.1,N
1502178696.0,286046932.1,N
1502178715.8,286046931.7,N
1502178735.6,286046931.8,N
1502178755.5,286046929.7,N
1502178775.3,286046929.5,N
1502178795.1,286046929.6,N
1502178815.9,286046928.2,N
1502178835.7,286046929.0,N
1502178855.5,286046929.0,N
1502178875.4,286046928.8,N
1502178895.2,286046926.6,N
1502178915.0,286046927.7,N
1502178915.9,286046927.7,N
1502178935.8,286046927.9,N
1502178955.6,286046928.6,N
1502178975.4,286046928.4,N
1502178995.3,286046929.0,N
1502179015.1,286046926.2,N
1502179016.0,286046926.2,N
1502179035.8,286046926.5,N
1502179055.7,286046926.5,N
1502179075.5,286046929.2,N
1502179095.3,286046924.9,N
1502179115.1,286046926.9,N
1502179135.9,286046927.4,N
1502179155.7,286046925.1,N
1502179175.5,286046925.1,N
1502179195.2,286046926.9,N
